Weather History for Lowell, ID

Change the Weather History Date:

Thursday, November 8, 2012

  Actual Average Record
Temperature  
Mean Temperature 40 °F -  
Max Temperature 42 °F 47 °F 59 °F (1999)
Min Temperature 37 °F 32 °F 25 °F (2003)
Degree Days  
Heating Degree Days 26    
Moisture  
Dew Point 37 °F    
Average Humidity 90    
Maximum Humidity 93    
Minimum Humidity 86    
Precipitation  
Precipitation 0.17 in - - ()
Sea Level Pressure  
Sea Level Pressure 29.81 in    
Wind  
Wind Speed 0 mph (SSE)    
Max Wind Speed 5 mph    
Max Gust Speed -    
Averages and records for this station are not official NWS values.
T = Trace of Precipitation, MM = Missing Value Source: NWS Daily Summary

Daily Weather History Graph

Daily Weather History Graph

Search for Another Location

Airport:

Trip Planner

Search our weather history database for the weather conditions in past years. The results will help you decide how hot, cold, wet, or windy it might be!

Date:

Astronomy

Nov. 08, 2012 Rise Set
Actual Time 7:34 AM MST 5:17 PM MST
Civil Twilight 7:02 AM MST 5:49 PM MST
Nautical Twilight 6:26 AM MST 6:25 PM MST
Astronomical Twilight 5:51 AM MST 7:00 PM MST
Moon 1:15 AM MST (11/8) 2:17 PM MST (11/8)
Length of Visible Light 10h 47m
Length of Day
9h 43m
Waning Crescent, 32% of the Moon is Illuminated
Nov 8
Waning Crescent
Nov 13
New
Nov 20
First Quarter
Nov 28
Full
Dec 6
Last Quarter

Hourly Weather History & Observations

Time (MST) Temp. Windchill Dew Point Humidity Pressure Visibility Wind Dir Wind Speed Gust Speed Precip Events Conditions
12:52 AM 42.1 °F - 39.9 °F 92% 30.00 in - Calm Calm - N/A   Unknown
1:52 AM 41.0 °F - 39.0 °F 93% 29.97 in - Calm Calm - N/A   Unknown
2:52 AM 41.0 °F - 37.9 °F 89% 29.94 in - Calm Calm - N/A   Unknown
3:52 AM 41.0 °F - 37.9 °F 89% 29.91 in - Calm Calm - N/A   Unknown
4:52 AM 39.9 °F 37.8 °F 37.0 °F 89% 29.89 in - North 3.5 mph - N/A   Unknown
5:52 AM 39.0 °F - 36.0 °F 89% 29.86 in - Calm Calm - N/A   Unknown
6:52 AM 39.0 °F - 37.0 °F 93% 29.83 in - Calm Calm - N/A   Unknown
7:52 AM 39.9 °F - 37.0 °F 89% 29.82 in - Calm Calm - N/A   Unknown
8:52 AM 39.9 °F - 37.0 °F 89% 29.80 in - Calm Calm - N/A   Unknown
9:52 AM 39.9 °F - 37.0 °F 89% 29.78 in - Calm Calm - 0.04 in   Unknown
10:52 AM 39.9 °F - 37.9 °F 93% 29.75 in - Calm Calm - 0.04 in   Unknown
11:52 AM 39.9 °F - 37.0 °F 89% 29.73 in - Calm Calm - 0.04 in   Unknown
12:52 PM 39.9 °F - 37.0 °F 89% 29.73 in - Calm Calm - 0.01 in   Unknown
1:52 PM 39.0 °F 35.7 °F 36.0 °F 89% 29.73 in - South 4.6 mph - N/A   Unknown
2:52 PM 39.0 °F - 36.0 °F 89% 29.72 in - Calm Calm - N/A   Unknown
3:52 PM 39.9 °F - 37.0 °F 89% 29.71 in - Calm Calm - N/A   Unknown
4:52 PM 39.0 °F - 36.0 °F 89% 29.71 in - Calm Calm - N/A   Unknown
5:52 PM 39.0 °F - 35.1 °F 86% 29.73 in - Calm Calm - N/A   Unknown
6:52 PM 39.0 °F 36.8 °F 35.1 °F 86% 29.75 in - Variable 3.5 mph - N/A   Unknown
7:52 PM 37.9 °F - 36.0 °F 93% 29.77 in - Calm Calm - 0.01 in   Unknown
8:52 PM 37.9 °F 34.4 °F 34.0 °F 86% 29.79 in - SSE 4.6 mph - 0.02 in   Unknown
9:52 PM 37.0 °F - 35.1 °F 93% 29.81 in - Calm Calm - 0.01 in   Unknown
10:52 PM 37.0 °F - 35.1 °F 93% 29.80 in - Calm Calm - N/A   Unknown
11:52 PM 37.9 °F - 36.0 °F 93% 29.81 in - Calm Calm - N/A   Unknown